Weather History for KINF - February, 2013

Change the Weather History Date:

Sunday, February 17, 2013

  Actual Average (KGNV) Record (KGNV)
Temperature  
Mean Temperature 42 °F 58 °F  
Max Temperature 53 °F 70 °F 85 °F (1928)
Min Temperature 32 °F 46 °F 23 °F (2007)
Degree Days  
Heating Degree Days 22 8  
Month to date heating degree days 153  
Since 1 July heating degree days 955  
Cooling Degree Days 0 1  
Month to date cooling degree days 13  
Year to date cooling degree days 25  
Moisture  
Dew Point 20 °F    
Average Humidity 47    
Maximum Humidity 87    
Minimum Humidity 19    
Precipitation  
Precipitation 0.00 in 0.11 in 0.90 in (1998)
Month to date precipitation 1.89  
Year to date precipitation 5.20  
Snow  
Snow 0.00 in 0.00 in 0.00 in ()
Month to date snowfall 0.0  
Since 1 July snowfall 0.0  
Snow Depth -    
Sea Level Pressure  
Sea Level Pressure 30.30 in    
Wind  
Wind Speed 5 mph (North)    
Max Wind Speed 14 mph    
Max Gust Speed 20 mph    
Visibility 10 miles    
Events      
T = Trace of Precipitation, MM = Missing Value Source: NWS Daily Summary

Daily Weather History Graph

Daily Weather History Graph

Search for Another Location

Airport or City:

Trip Planner

Search our weather history database for the weather conditions in past years. The results will help you decide how hot, cold, wet, or windy it might be!

Date:

Astronomy

Feb. 17, 2013 Rise Set
Actual Time 7:05 AM EST 6:21 PM EST
Civil Twilight 6:41 AM EST 6:45 PM EST
Nautical Twilight 6:14 AM EST 7:12 PM EST
Astronomical Twilight 5:46 AM EST 7:40 PM EST
Moon 11:35 AM EST (2/17) 12:39 AM EST (2/17)
Length of Visible Light 12h 03m
Length of Day
11h 15m
Waxing Crescent, 49% of the Moon is Illuminated
Feb 17
Waxing Crescent
Feb 17
First Quarter
Feb 25
Full
Mar 4
Last Quarter
Mar 11
New

Hourly Weather History & Observations

Time (EST) Temp. Windchill Dew Point Humidity Pressure Visibility Wind Dir Wind Speed Gust Speed Precip Events Conditions
12:15 AM 44.6 °F 41.4 °F 19.4 °F 37% 30.19 in 10.0 mi NNW 5.8 mph - N/A   Clear
12:35 AM 42.8 °F 39.3 °F 19.4 °F 39% 30.20 in 10.0 mi North 5.8 mph - N/A   Clear
12:55 AM 42.8 °F 39.3 °F 19.4 °F 39% 30.20 in 10.0 mi NNW 5.8 mph - N/A   Clear
1:15 AM 42.8 °F 39.3 °F 19.4 °F 39% 30.21 in 10.0 mi NNW 5.8 mph - N/A   Clear
1:35 AM 41.0 °F 39.0 °F 19.4 °F 42% 30.22 in 10.0 mi NNW 3.5 mph - N/A   Clear
1:55 AM 41.0 °F 38.0 °F 19.4 °F 42% 30.22 in 10.0 mi North 4.6 mph - N/A   Clear
2:15 AM 41.0 °F 36.4 °F 19.4 °F 42% 30.22 in 10.0 mi North 6.9 mph - N/A   Clear
2:35 AM 41.0 °F 37.1 °F 19.4 °F 42% 30.21 in 10.0 mi NNW 5.8 mph - N/A   Clear
2:55 AM 39.2 °F 35.9 °F 19.4 °F 45% 30.21 in 10.0 mi NNW 4.6 mph - N/A   Clear
3:15 AM 37.4 °F 33.8 °F 19.4 °F 48% 30.22 in 10.0 mi NNW 4.6 mph - N/A   Clear
3:35 AM 37.4 °F 34.9 °F 19.4 °F 48% 30.22 in 10.0 mi NNW 3.5 mph - N/A   Clear
3:55 AM 37.4 °F 33.8 °F 19.4 °F 48% 30.22 in 10.0 mi NNW 4.6 mph - N/A   Clear
4:15 AM 35.6 °F 32.8 °F 21.2 °F 56% 30.23 in 10.0 mi NNW 3.5 mph - N/A   Clear
4:35 AM 35.6 °F - 21.2 °F 56% 30.23 in 10.0 mi Calm Calm - N/A   Clear
4:55 AM 33.8 °F - 21.2 °F 60% 30.24 in 10.0 mi Calm Calm - N/A   Clear
5:15 AM 33.8 °F 30.8 °F 21.2 °F 60% 30.25 in 10.0 mi NNW 3.5 mph - N/A   Clear
5:35 AM 33.8 °F 30.8 °F 21.2 °F 60% 30.26 in 10.0 mi NNW 3.5 mph - N/A   Clear
5:55 AM 33.8 °F - 23.0 °F 65% 30.27 in 10.0 mi Calm Calm - N/A   Clear
6:15 AM 32.0 °F - 21.2 °F 64% 30.28 in 10.0 mi Calm Calm - N/A   Clear
6:35 AM 32.0 °F - 21.2 °F 64% 30.29 in 10.0 mi Calm Calm - N/A   Clear
6:55 AM 32.0 °F - 23.0 °F 69% 30.29 in 10.0 mi Calm Calm - N/A   Clear
7:15 AM 33.8 °F 28.6 °F 21.2 °F 60% 30.30 in 10.0 mi North 5.8 mph - N/A   Clear
7:35 AM 35.6 °F 30.7 °F 21.2 °F 56% 30.31 in 10.0 mi North 5.8 mph - N/A   Clear
7:55 AM 37.4 °F 31.4 °F 21.2 °F 52% 30.32 in 10.0 mi North 8.1 mph - N/A   Clear
8:15 AM 39.2 °F 32.5 °F 21.2 °F 49% 30.32 in 10.0 mi North 10.4 mph - N/A   Clear
8:35 AM 39.2 °F 31.2 °F 21.2 °F 49% 30.33 in 10.0 mi North 13.8 mph 19.6 mph N/A   Clear
8:55 AM 41.0 °F 33.9 °F 19.4 °F 42% 30.34 in 10.0 mi North 12.7 mph - N/A   Clear
9:15 AM 41.0 °F 34.3 °F 19.4 °F 42% 30.35 in 10.0 mi NNE 11.5 mph 19.6 mph N/A   Clear
9:35 AM 42.8 °F 37.5 °F 19.4 °F 39% 30.35 in 10.0 mi North 9.2 mph 16.1 mph N/A   Clear
9:55 AM 42.8 °F 37.5 °F 19.4 °F 39% 30.35 in 10.0 mi North 9.2 mph - N/A   Clear
10:15 AM 42.8 °F 37.0 °F 17.6 °F 36% 30.35 in 10.0 mi North 10.4 mph 16.1 mph N/A   Clear
10:35 AM 44.6 °F 38.8 °F 17.6 °F 34% 30.36 in 10.0 mi North 11.5 mph 16.1 mph N/A   Clear
10:55 AM 46.4 °F 41.5 °F 17.6 °F 32% 30.36 in 10.0 mi North 10.4 mph - N/A   Clear
11:15 AM 46.4 °F 40.7 °F 17.6 °F 32% 30.36 in 10.0 mi NNE 12.7 mph 17.3 mph N/A   Clear
11:35 AM 46.4 °F 40.7 °F 15.8 °F 29% 30.37 in 10.0 mi North 12.7 mph 17.3 mph N/A   Clear
11:55 AM 46.4 °F 43.5 °F 15.8 °F 29% 30.36 in 10.0 mi NW 5.8 mph 19.6 mph N/A   Clear
12:15 PM 48.2 °F - 14.0 °F 25% 30.35 in 10.0 mi NNE 8.1 mph - N/A   Clear
12:35 PM 48.2 °F - 15.8 °F 27% 30.35 in 10.0 mi North 5.8 mph 18.4 mph N/A   Clear
12:55 PM 50.0 °F - 14.0 °F 24% 30.34 in 10.0 mi NNE 5.8 mph - N/A   Clear
1:15 PM 50.0 °F - 14.0 °F 24% 30.33 in 10.0 mi North 6.9 mph - N/A   Clear
1:55 PM 51.8 °F - 14.0 °F 22% 30.31 in 10.0 mi NNE 5.8 mph - N/A   Clear
2:15 PM 51.8 °F - 14.0 °F 22% 30.31 in 10.0 mi North 10.4 mph 16.1 mph N/A   Clear
2:35 PM 51.8 °F - 12.2 °F 21% 30.30 in 10.0 mi NNE 8.1 mph - N/A   Clear
2:55 PM 51.8 °F - 12.2 °F 21% 30.30 in 10.0 mi Calm Calm - N/A   Clear
3:15 PM 51.8 °F - 14.0 °F 22% 30.30 in 10.0 mi NNW 6.9 mph - N/A   Clear
3:35 PM 53.6 °F - 12.2 °F 19% 30.29 in 10.0 mi North 8.1 mph - N/A   Clear
3:55 PM 51.8 °F - 12.2 °F 21% 30.29 in 10.0 mi North 4.6 mph - N/A   Clear
4:15 PM 53.6 °F - 12.2 °F 19% 30.29 in 10.0 mi NNE 8.1 mph - N/A   Clear
4:35 PM 51.8 °F - 10.4 °F 19% 30.29 in 7.0 mi North 6.9 mph - N/A   Clear
4:55 PM 51.8 °F - 12.2 °F 21% 30.29 in 10.0 mi North 5.8 mph - N/A   Clear
5:15 PM 51.8 °F - 10.4 °F 19% 30.29 in 10.0 mi North 5.8 mph - N/A   Clear
5:35 PM 51.8 °F - 10.4 °F 19% 30.29 in 10.0 mi NNW 3.5 mph - N/A   Clear
5:55 PM 50.0 °F - 14.0 °F 24% 30.30 in 10.0 mi North 3.5 mph - N/A   Clear
6:15 PM 46.4 °F - 15.8 °F 29% 30.30 in 10.0 mi Calm Calm - N/A   Clear
6:35 PM 46.4 °F - 19.4 °F 34% 30.31 in 10.0 mi Calm Calm - N/A   Clear
6:55 PM 42.8 °F - 21.2 °F 42% 30.31 in 10.0 mi Calm Calm - N/A   Clear
7:15 PM 42.8 °F - 26.6 °F 53% 30.32 in 10.0 mi Calm Calm - N/A   Clear
7:35 PM 41.0 °F - 28.4 °F 61% 30.32 in 10.0 mi Calm Calm - N/A   Clear
7:55 PM 41.0 °F - 28.4 °F 61% 30.32 in 10.0 mi Calm Calm - N/A   Clear
8:15 PM 37.4 °F - 28.4 °F 70% 30.33 in 10.0 mi Calm Calm - N/A   Clear
8:35 PM 35.6 °F - 28.4 °F 75% 30.34 in 10.0 mi Calm Calm - N/A   Clear
8:55 PM 35.6 °F - 28.4 °F 75% 30.34 in 10.0 mi Calm Calm - N/A   Clear
9:15 PM 35.6 °F - 28.4 °F 75% 30.35 in 10.0 mi Calm Calm - N/A   Clear
9:35 PM 33.8 °F - 28.4 °F 81% 30.36 in 10.0 mi Calm Calm - N/A   Clear
9:55 PM 33.8 °F - 28.4 °F 81% 30.36 in 10.0 mi Calm Calm - N/A   Clear
10:15 PM 33.8 °F - 28.4 °F 81% 30.37 in 10.0 mi Calm Calm - N/A   Clear
10:35 PM 32.0 °F - 28.4 °F 87% 30.37 in 10.0 mi Calm Calm - N/A   Clear
10:55 PM 32.0 °F - 28.4 °F 87% 30.38 in 10.0 mi Calm Calm - N/A   Clear
11:15 PM 32.0 °F - 28.4 °F 87% 30.38 in 10.0 mi Calm Calm - N/A   Clear
11:35 PM 32.0 °F - 28.4 °F 87% 30.38 in 10.0 mi Calm Calm - N/A   Clear
11:55 PM 32.0 °F - 28.4 °F 87% 30.38 in 10.0 mi Calm Calm - N/A   Clear